DW8626 Madrid ES current weather conditions

sailwx.info

Wind from 224 at 10 knots gusting 19

Air temperature 12.8° C
Dewpoint 11.8° C

Last reported at 2016-Feb-12 15:33 UTC.
Time now 2016-Feb-12 16:12 UTC

Location: N 40°29' W 003°43'.
View on Google Maps.

See reports from other nearby stations

  
Tides and Currents Weather Stations Pressure Air Temp Water Temp Dewpoint Dewpoint Depression Visibility Wind Speed Wind Dir Waves Ship Positions
date/time (UTC)wind fromknots sea level pressurealtimeterstation pressurevisibilityair tempwater tempwave heightnotes
2016-Feb-12 15:33 224 10 gusting 19 12.8
2016-Feb-12 15:18 255 8 gusting 17 12.8
2016-Feb-12 15:03 212 10 gusting 19 12.8
2016-Feb-12 14:48 271 7 gusting 22 12.2
2016-Feb-12 14:33 225 13 gusting 21 12.2
2016-Feb-12 14:18 217 12 gusting 26 12.2
2016-Feb-12 14:03 232 13 gusting 24 12.2
2016-Feb-12 13:48 233 13 gusting 21 12.2
2016-Feb-12 13:33 215 13 gusting 25 12.2
2016-Feb-12 13:18 302 13 gusting 24 12.2
2016-Feb-12 13:03 252 10 gusting 25 11.7
2016-Feb-12 12:48 195 14 gusting 23 11.7
2016-Feb-12 12:33 240 15 gusting 23 11.7
2016-Feb-12 12:18 224 13 gusting 22 11.7
2016-Feb-12 12:03 204 14 gusting 19 11.1
2016-Feb-12 11:48 246 13 gusting 28 11.1
2016-Feb-12 11:33 232 12 gusting 26 11.1
2016-Feb-12 11:18 200 15 gusting 31 11.1
2016-Feb-12 11:03 252 8 gusting 27 11.1
2016-Feb-12 10:48 219 12 gusting 28 10.6
2016-Feb-12 10:33 167 14 gusting 32 10.6
2016-Feb-12 10:18 226 14 gusting 28 10.6
2016-Feb-12 10:03 250 13 gusting 26 10.0
2016-Feb-12 09:48 204 12 gusting 26 10.0
2016-Feb-12 09:33 226 15 gusting 27 10.0
2016-Feb-12 09:18 272 13 gusting 22 10.0
2016-Feb-12 09:03 207 10 gusting 21 9.4
2016-Feb-12 08:48 176 13 gusting 23 9.4
2016-Feb-12 08:33 257 11 gusting 26 9.4
2016-Feb-12 08:18 232 13 gusting 28 9.4
2016-Feb-12 08:03 231 11 gusting 26 9.4
2016-Feb-12 07:48 226 8 gusting 24 8.9
2016-Feb-12 07:33 159 7 gusting 18 8.9
2016-Feb-12 07:18 129 10 gusting 19 8.9
2016-Feb-12 07:03 224 10 gusting 20 8.9
2016-Feb-12 06:48 205 11 gusting 17 8.9
2016-Feb-12 06:33 152 8 gusting 16 8.3
2016-Feb-12 06:18 267 6 gusting 26 8.3
2016-Feb-12 06:03 125 6 gusting 17 8.3
2016-Feb-12 05:48 263 6 gusting 15 8.3
2016-Feb-12 05:33 153 6 gusting 16 8.3
2016-Feb-12 05:18 198 7 gusting 15 8.3
2016-Feb-12 05:03 272 6 gusting 13 8.3
2016-Feb-12 04:48 207 7 gusting 16 8.3
2016-Feb-12 04:33 248 9 gusting 20 8.9
2016-Feb-12 04:18 243 6 gusting 13 8.9
2016-Feb-12 04:03 243 9 gusting 18 8.9
2016-Feb-12 03:48 178 3 gusting 13 8.9
2016-Feb-12 03:33 230 7 gusting 13 8.9
2016-Feb-12 03:18 215 7 gusting 15 8.9
2016-Feb-12 03:03 230 2 gusting 11 8.9
2016-Feb-12 02:48 228 7 gusting 15 8.9
2016-Feb-12 02:33 249 8 gusting 16 8.9
2016-Feb-12 02:18 149 7 gusting 16 8.9
2016-Feb-12 02:03 218 10 gusting 15 8.9
2016-Feb-12 01:48 204 6 gusting 18 9.4
2016-Feb-12 01:33 194 5 gusting 11 9.4
2016-Feb-12 01:18 232 6 gusting 14 9.4
2016-Feb-12 01:03 221 6 gusting 11 9.4
2016-Feb-12 00:48 252 6 gusting 12 9.4
2016-Feb-12 00:33 237 6 gusting 13 9.4
2016-Feb-12 00:18 276 6 gusting 12 9.4
2016-Feb-12 00:03 159 6 gusting 13 10.0
2016-Feb-11 23:48 229 5 gusting 11 10.0
2016-Feb-11 23:33 225 5 gusting 12 10.0
2016-Feb-11 23:18 172 4 gusting 8 10.0
2016-Feb-11 23:03 172 4 gusting 9 10.0
2016-Feb-11 22:48 163 6 gusting 10 10.6
2016-Feb-11 22:33 152 1 gusting 7 10.6
2016-Feb-11 22:18 248 5 gusting 11 10.6
2016-Feb-11 22:03 281 8 gusting 13 11.1
2016-Feb-11 21:48 211 8 gusting 15 11.7
2016-Feb-11 21:33 224 9 gusting 13 12.2
2016-Feb-11 21:18 256 11 gusting 19 12.8
2016-Feb-11 21:03 249 11 gusting 23 12.8
2016-Feb-11 20:48 248 10 gusting 19 12.8
2016-Feb-11 20:33 203 10 gusting 18 12.8
2016-Feb-11 20:18 238 8 gusting 19 12.8
2016-Feb-11 20:03 229 6 gusting 12 12.8
2016-Feb-11 19:48 229 6 gusting 11 12.8
2016-Feb-11 19:33 232 1 gusting 9 12.8
2016-Feb-11 19:18 281 5 gusting 9 12.8
2016-Feb-11 18:48 281 6 gusting 14 13.3
2016-Feb-11 18:33 263 11 gusting 19 13.3
2016-Feb-11 18:18 250 6 gusting 11 13.3
2016-Feb-11 18:03 259 7 gusting 15 13.9
2016-Feb-11 17:48 280 5 gusting 13 13.9
2016-Feb-11 17:33 260 6 gusting 13 14.4
2016-Feb-11 17:18 329 5 gusting 18 14.4
2016-Feb-11 17:03 252 12 gusting 22 15.0
2016-Feb-11 16:48 285 9 gusting 22 15.0
2016-Feb-11 16:33 294 5 gusting 19 15.6
2016-Feb-11 16:18 283 6 gusting 23 15.0
2016-Feb-11 16:03 211 6 gusting 18 15.0
2016-Feb-11 15:48 263 12 gusting 23 15.0
2016-Feb-11 15:33 301 12 gusting 19 14.4
2016-Feb-11 15:18 289 5 gusting 13 13.9
2016-Feb-11 15:03 297 2 gusting 12 13.3
2016-Feb-11 14:48 008 7 gusting 19 13.9
2016-Feb-11 14:33 256 4 gusting 11 14.4
2016-Feb-11 14:18 273 10 gusting 23 15.0
2016-Feb-11 14:03 300 10 gusting 19 15.0
2016-Feb-11 13:48 269 8 gusting 17 14.4
2016-Feb-11 13:33 278 3 gusting 13 13.9
2016-Feb-11 13:18 281 4 gusting 12 13.9
2016-Feb-11 13:03 217 2 gusting 10 13.3
2016-Feb-11 12:48 228 6 gusting 11 12.8
2016-Feb-11 12:33 287 4 gusting 18 12.8
2016-Feb-11 12:18 278 4 gusting 13 12.2
2016-Feb-11 12:03 240 6 gusting 14 12.2
2016-Feb-11 11:48 226 10 gusting 15 12.2
2016-Feb-11 11:33 167 7 gusting 13 11.7
2016-Feb-11 11:18 262 6 gusting 14 11.7
2016-Feb-11 11:03 188 8 gusting 15 11.7
2016-Feb-11 10:48 184 6 gusting 12 11.7
2016-Feb-11 10:33 288 9 gusting 16 11.1
2016-Feb-11 10:18 217 7 gusting 13 11.1
2016-Feb-11 10:03 256 4 gusting 13 11.1
2016-Feb-11 09:48 226 6 gusting 10 11.1
2016-Feb-11 09:33 224 6 gusting 15 11.1
2016-Feb-11 09:18 245 5 gusting 11 11.1
2016-Feb-11 09:03 258 7 gusting 12 10.6
2016-Feb-11 08:48 222 5 gusting 15 10.6
2016-Feb-11 08:33 273 6 gusting 14 10.6
2016-Feb-11 08:03 249 6 gusting 14 10.6
2016-Feb-11 07:48 222 4 gusting 12 10.6
2016-Feb-11 07:33 156 6 gusting 12 10.6
2016-Feb-11 07:03 186 4 gusting 8 10.6
2016-Feb-11 06:48 217 8 gusting 14 10.6
2016-Feb-11 06:33 198 5 gusting 11 10.6
2016-Feb-11 06:18 263 6 gusting 13 10.6
2016-Feb-11 06:03 162 5 gusting 9 10.6
2016-Feb-11 05:48 191 2 gusting 9 10.6
2016-Feb-11 05:18 178 6 gusting 15 10.6
2016-Feb-11 04:48 152 6 gusting 14 10.6
2016-Feb-11 04:33 266 5 gusting 14 10.6
2016-Feb-11 04:18 201 8 gusting 15 10.0
2016-Feb-11 04:03 213 11 gusting 16 10.0
2016-Feb-11 03:48 246 8 gusting 15 10.0
2016-Feb-11 03:33 246 6 gusting 13 10.0
2016-Feb-11 03:18 240 6 gusting 14 10.6
2016-Feb-11 03:03 253 6 gusting 15 10.6
2016-Feb-11 02:48 252 6 gusting 15 10.6
2016-Feb-11 02:33 252 5 gusting 12 10.6
2016-Feb-11 02:18 190 2 gusting 7 10.6
2016-Feb-11 02:03 141 4 gusting 9 11.1
2016-Feb-11 01:48 224 3 gusting 9 11.1
2016-Feb-11 01:33 298 9 gusting 13 11.1
2016-Feb-11 01:18 229 5 gusting 12 11.1
2016-Feb-11 01:03 250 7 gusting 15 11.1
2016-Feb-11 00:48 240 7 gusting 15 11.1
2016-Feb-11 00:33 252 7 gusting 16 11.1
2016-Feb-11 00:18 226 8 gusting 13 11.1
2016-Feb-11 00:03 243 8 gusting 16 11.7
2016-Feb-10 23:48 176 7 gusting 18 11.7
2016-Feb-10 23:33 233 7 gusting 15 11.7
2016-Feb-10 23:18 240 13 gusting 19 11.7
2016-Feb-10 23:03 212 11 gusting 20 11.7
2016-Feb-10 22:48 260 11 gusting 19 12.2
2016-Feb-10 22:33 287 6 gusting 23 12.8
2016-Feb-10 22:18 256 9 gusting 17 12.2
2016-Feb-10 22:03 279 10 gusting 16 12.2
2016-Feb-10 21:48 263 8 gusting 25 12.2
2016-Feb-10 21:33 245 11 gusting 20 12.2
2016-Feb-10 21:18 253 9 gusting 19 12.2
2016-Feb-10 21:03 246 10 gusting 18 12.2
2016-Feb-10 20:48 290 10 gusting 19 12.2
2016-Feb-10 20:33 232 13 gusting 23 12.2
2016-Feb-10 20:18 246 12 gusting 19 12.2
2016-Feb-10 20:03 217 12 gusting 19 12.2
2016-Feb-10 19:48 230 13 gusting 19 12.8
2016-Feb-10 19:33 252 9 gusting 18 12.8
2016-Feb-10 19:18 222 9 gusting 18 12.8
2016-Feb-10 19:03 252 7 gusting 19 12.8
2016-Feb-10 18:48 257 9 gusting 14 12.8
2016-Feb-10 18:33 223 7 gusting 15 12.8
2016-Feb-10 18:18 246 8 gusting 13 12.8
2016-Feb-10 18:03 154 6 gusting 17 13.3
2016-Feb-10 17:48 191 9 gusting 18 13.3
2016-Feb-10 17:33 144 8 gusting 16 13.3
2016-Feb-10 17:18 208 7 gusting 18 13.9
2016-Feb-10 17:03 242 8 gusting 22 13.9
2016-Feb-10 16:48 229 6 gusting 23 13.9
2016-Feb-10 16:33 259 10 gusting 23 13.9
2016-Feb-10 16:18 174 12 gusting 28 13.9
2016-Feb-10 16:03 211 8 gusting 22 13.9